Regional Weather Roundup
Issued by NWS

Home | Current Version | Previous Version | Graphics & Text | Print | Product List | Glossary On
Versions: 1 2 3 4 5 6 7 8 9 10 11 12 13 14 15 16 17 18 19 20 21 22 23 24 25 26 27 28 29 30 31 32 33 34 35 36 37 38 39 40 41 42 43 44 45 46 47 48 49 50
000
ASUS43 KFSD 290710
RWRSD

WEATHER ROUNDUP FOR SOUTH DAKOTA
NATIONAL WEATHER SERVICE SIOUX FALLS SD
200 AM CDT SUN MAR 29 2015

NOTE: "FAIR" INDICATES FEW OR NO CLOUDS BELOW 12,000 FEET WITH NO
SIGNIFICANT WEATHER AND/OR OBSTRUCTIONS TO VISIBILITY.


SDZ001>005-009-010-012>017-290800-
NORTHWEST AND NORTH CENTRAL SOUTH DAKOTA

CITY           SKY/WX    TMP DP  RH WIND       PRES   REMARKS
BUFFALO          N/A     45  35  68 W51G63    29.74S
FAITH            N/A     47  34  60 W31G39    29.76F
MOBRIDGE       CLEAR     45  40  82 W9        29.65R
$$

SDZ012>016-024>037-041>051-057-063-072>074-290800-
SOUTHWEST AND SOUTH CENTRAL SOUTH DAKOTA

CITY           SKY/WX    TMP DP  RH WIND       PRES   REMARKS
RAPID CTY ARPT CLEAR     54  15  21 NW33G49   29.85R
PIERRE         CLEAR     48  39  71 NW12      29.74R
CUSTER         PTCLDY    43  12  28 W16G28    29.96R
ELLSWORTH AFB  CLEAR     52  16  24 NW30      29.84R
PHILIP         CLEAR     47  32  56 W7        29.81S
PINE RIDGE     CLEAR     51  20  29 W7        29.91R
SPEARFISH      FAIR      48  18  29 W24G39    29.91R
WINNER         FAIR      55  39  54 NW16      29.79R
$$

SDZ004>011-016>023-039-040-290800-
NORTHEAST SOUTH DAKOTA

CITY           SKY/WX    TMP DP  RH WIND       PRES   REMARKS
ABERDEEN       CLOUDY    47  36  65 S12       29.62F
WATERTOWN      LGT RAIN  44  34  67 S21G32    29.64R
SISSETON         N/A     46  34  62 SW14      29.61F
$$

SDZ017-020-022-023-036>040-048>070-290800-
SOUTHEAST SOUTH DAKOTA

CITY           SKY/WX    TMP DP  RH WIND       PRES   REMARKS
SIOUX FALLS    CLOUDY    44  31  60 S26G36    29.70F
HURON          MOCLDY    44  33  65 S9        29.66S
CHAMBERLAIN    CLEAR     54  42  64 NW20G28   29.74R
MITCHELL       MOCLDY    49  35  58 S7        29.67R
YANKTON        CLOUDY    48  34  57 SW15      29.77R
$$

ABBREVIATIONS USED IN REMARKS
   TC - TEMPERATURE IN CELSIUS
  WCI - WIND CHILL INDEX
   HX - HEAT INDEX
  VSB - VISIBILITY




USA.gov is the U.S. government's official web portal to all federal, state and local government web resources and services.